TimeMDT,TemperatureF,Dew PointF,Humidity,Sea Level PressureIn,VisibilityMPH,Wind Direction,Wind SpeedMPH,Gust SpeedMPH,PrecipitationIn,Events,Conditions,WindDirDegrees,DateUTC
12:53 AM,82.0,18.0,9,29.44,10.0,SSE,21.9,-,N/A,,Scattered Clouds,150,2013-06-19 06:53:00
1:53 AM,81.0,19.9,10,29.44,10.0,SE,20.7,29.9,N/A,,Scattered Clouds,140,2013-06-19 07:53:00
2:53 AM,79.0,24.1,13,29.44,10.0,SSE,17.3,-,N/A,,Partly Cloudy,160,2013-06-19 08:53:00
3:53 AM,77.0,21.9,13,29.44,10.0,SSE,17.3,23.0,N/A,,Partly Cloudy,150,2013-06-19 09:53:00
4:53 AM,75.9,23.0,14,29.44,10.0,SSE,11.5,-,N/A,,Partly Cloudy,160,2013-06-19 10:53:00
5:53 AM,77.0,19.9,12,29.44,10.0,South,13.8,23.0,N/A,,Partly Cloudy,170,2013-06-19 11:53:00
6:53 AM,75.9,26.1,16,29.46,10.0,WSW,9.2,-,N/A,,Partly Cloudy,250,2013-06-19 12:53:00
7:53 AM,73.0,45.0,37,29.49,10.0,West,19.6,31.1,N/A,,Partly Cloudy,280,2013-06-19 13:53:00
8:53 AM,75.0,39.9,28,29.50,10.0,NNW,9.2,-,N/A,,Partly Cloudy,340,2013-06-19 14:53:00
9:53 AM,75.9,39.0,26,29.54,10.0,WNW,16.1,25.3,N/A,,Scattered Clouds,300,2013-06-19 15:53:00
10:53 AM,77.0,39.0,25,29.56,10.0,NW,16.1,25.3,N/A,,Scattered Clouds,310,2013-06-19 16:53:00
11:53 AM,78.1,32.0,19,29.60,10.0,NW,15.0,26.5,N/A,,Scattered Clouds,320,2013-06-19 17:53:00
12:53 PM,78.1,28.9,17,29.61,10.0,NNW,10.4,19.6,N/A,,Scattered Clouds,340,2013-06-19 18:53:00
1:53 PM,78.1,30.0,17,29.62,10.0,Variable,6.9,17.3,N/A,,Scattered Clouds,0,2013-06-19 19:53:00
2:53 PM,80.1,30.0,16,29.63,10.0,NNW,6.9,17.3,N/A,,Scattered Clouds,330,2013-06-19 20:53:00
3:53 PM,82.9,19.9,10,29.64,10.0,WNW,16.1,25.3,N/A,,Scattered Clouds,290,2013-06-19 21:53:00
4:53 PM,78.1,15.1,9,29.68,10.0,NW,23.0,34.5,N/A,,Mostly Cloudy,310,2013-06-19 22:53:00
5:53 PM,75.0,24.1,15,29.72,10.0,North,23.0,28.8,N/A,,Scattered Clouds,360,2013-06-19 23:53:00
6:53 PM,72.0,21.9,15,29.76,10.0,North,19.6,29.9,N/A,,Mostly Cloudy,350,2013-06-20 00:53:00
7:53 PM,72.0,21.0,15,29.78,10.0,North,17.3,26.5,N/A,,Scattered Clouds,350,2013-06-20 01:53:00
8:53 PM,69.1,25.0,19,29.81,10.0,NNW,15.0,-,N/A,,Scattered Clouds,340,2013-06-20 02:53:00
9:53 PM,64.9,30.9,28,29.83,10.0,North,13.8,21.9,N/A,,Scattered Clouds,360,2013-06-20 03:53:00
10:53 PM,61.0,32.0,34,29.86,10.0,North,8.1,-,N/A,,Scattered Clouds,350,2013-06-20 04:53:00
11:53 PM,59.0,34.0,39,29.86,10.0,North,5.8,-,N/A,,Scattered Clouds,350,2013-06-20 05:53:00